Location: Arthurs Seat
(13.1500°N, 59.6000°W)
Time: 18:07:24
(UTC+00:00)

Palapa B4 Rocket - Pass Details

Date: 25 August 2019
Orbit: 502 x 2696 km, 19.7° (Epoch: 21 September)

Event Time Altitude Azimuth Distance (km) Brightness Sun altitude
Rises 23:42:27 0° 289° (WNW) 2,813 8.0 -21.7°
Reaches altitude 10° 23:44:27 10° 295° (WNW) 2,050 6.8 -22.2°
Maximum altitude 23:49:03 52° 12° (NNE) 1,033 4.1 -23.3°
Enters shadow 23:50:52 39° 61° (ENE) 1,355 4.4 -23.7°
